Regional Weather Roundup
Issued by NWS Sioux Falls, SD

Home | Current Version | Previous Version | Text Only | Print | Product List | Glossary Off
Versions: 1 2 3 4 5 6 7 8 9 10 11 12 13 14 15 16 17 18 19 20 21 22 23 24 25 26 27 28 29 30 31 32 33 34 35 36 37 38 39 40 41 42 43 44 45 46 47 48 49 50

000
ASUS43 KFSD 260802
RWRFSD

WEATHER ROUNDUP FOR SE SOUTH DAKOTA/SW MINNESOTA/NW IOWA
NATIONAL WEATHER SERVICE SIOUX FALLS SD
300 AM CDT MON JUN 26 2017

NOTE: "FAIR" INDICATES FEW OR NO CLOUDS BELOW 12,000 FEET WITH NO
SIGNIFICANT WEATHER AND OR OBSTRUCTIONS TO VISIBILITY.


SDZ038>040-050-052>070-260900-
SOUTHEAST SOUTH DAKOTA

CITY           SKY/WX    TMP DP  RH WIND       PRES   REMARKS
BROOKINGS      CLEAR     49  48  97 CALM      30.21F
CHAMBERLAIN    CLEAR     50  47  88 E5        30.21R
HURON          CLEAR     49  48  97 CALM      30.21F
MADISON        FAIR      48  48 100 CALM      30.21F
MITCHELL       MOCLDY    55  51  86 E3        30.20F
SIOUX FALLS    CLOUDY    55  53  93 NE5       30.19F
WINNER         FAIR      52  46  80 E7        30.21R
YANKTON        MOCLDY    55  50  83 E9        30.19S
$$

MNZ071-072-080-081-089-090-097-098-260900-
SOUTHWEST MINNESOTA

CITY           SKY/WX    TMP DP  RH WIND       PRES   REMARKS
FAIRMONT       CLOUDY    55  50  83 W6        30.18F
JACKSON        MOCLDY    54  50  87 CALM      30.20R
LUVERNE        MOCLDY    52  50  93 CALM      30.21F
MARSHALL       CLEAR     49  46  90 W6        30.20S
MONTEVIDEO     MOCLDY    52  46  82 NW6       30.19S
PIPESTONE      CLEAR     54  48  82 CALM      30.21S
REDWOOD FALLS  MOCLDY    52  46  80 W9        30.18S
TRACY          CLEAR     52  49  87 W6        30.21R
WINDOM         CLEAR     52  48  87 W3        30.19S
WORTHINGTON    PTCLDY    53  50  89 W7        30.21F
$$

IAZ001>003-012>014-020>022-031-032-NEZ013-014-SDZ071-260900-
NORTHWEST IOWA

CITY           SKY/WX    TMP DP  RH WIND       PRES   REMARKS
CHEROKEE       LGT RAIN  54  52  94 CALM      30.22F
DENISON        MOCLDY    54  48  82 CALM      30.22F
ESTHERVILLE    CLOUDY    54  52  93 W7        30.19S
LE MARS        CLOUDY    54  50  87 CALM      30.24F
ORANGE CITY    LGT RAIN  55  54  94 CALM      30.22S
SHELDON        CLOUDY    55  52  88 SW7       30.20F
SIOUX CITY     LGT RAIN  56  50  80 NE15      30.22R
SPENCER        LGT RAIN  55  53  93 SW9       30.22R
STORM LAKE     CLOUDY    55  52  88 N9        30.24R
$$

ABBREVIATIONS USED IN REMARKS
   TC - TEMPERATURE IN CELSIUS
  WCI - WIND CHILL INDEX
   HX - HEAT INDEX
  VSB - VISIBILITY




USA.gov is the U.S. government's official web portal to all federal, state and local government web resources and services.